[[{"header":{"parameterUnit":"m.s-1","parameterCategory":1,"la1":30.2991,"la2":30.254,"lo1":-89.0895,"lo2":-89.0444,"dy":0.0017,"dx":0.0017,"nx":28,"ny":28,"refTime":"2024-05-17T09:00:00:Z","depth":0,"parameterNumber":2,"parameterNumberName":"U-component_of_WINDS"},"data":[0,0,0,0,0,0,0,0,0,0,0,0,0,0,0,0,0,0,0,0,0,0,0,0,0,0,0,0,0,0,0,0,0,0,0,0,0,0,0,0,0,0,0,0,0,0,0,0,0,0,0,0,0,0,0,0,0,0,3.5585,3.5587,0,3.5757,3.5759,3.5761,3.5727,3.5723,3.572,3.5717,3.5882,3.5889,3.5896,0,0,0,0,0,0,0,0,0,0,0,0,0,3.5215,3.5222,3.5585,3.5587,3.5589,3.5756,3.5759,3.5761,3.5727,3.5723,3.572,3.5716,3.588,3.5888,3.5897,0,0,0,0,0,0,0,0,0,0,0,0,0,3.538,3.5224,3.5585,3.5593,3.5595,3.5756,3.5759,3.5762,3.5728,3.5723,3.5719,3.5714,3.5877,3.5888,3.5898,3.6058,0,0,3.5932,3.5936,0,0,0,0,0,0,0,0,3.5371,3.5393,3.5589,3.5593,3.5596,3.5716,3.5689,3.5861,3.5729,3.5677,3.5717,3.5712,3.583,3.5844,3.5886,3.6066,3.6073,3.5933,3.5939,3.5944,3.5947,0,0,0,0,0,0,0,3.5359,3.5386,3.5653,3.5592,3.5596,3.5584,3.5602,3.5721,3.5777,3.5681,3.5679,3.5701,3.583,3.5876,3.589,3.6075,3.5932,3.5942,3.5949,3.5953,3.639,3.6395,0,0,0,0,0,0,3.5347,3.5377,3.5647,3.5658,3.547,3.5594,3.5615,3.5682,3.5776,3.5786,3.5705,3.5699,3.586,3.5877,3.5896,3.6086,3.5944,3.5954,3.596,3.6385,3.6391,3.6397,0,0,0,0,0,0,3.5339,3.5371,3.564,3.5517,3.555,3.5606,3.5681,3.5687,3.5733,3.5793,3.5802,3.5741,3.5857,3.588,3.6018,3.6091,3.5959,3.5969,3.6379,3.6387,3.6394,3.6469,0,0,0,0,0,0,3.5329,3.5369,3.5433,3.5519,3.5557,3.5763,3.5686,3.5694,3.5753,3.5747,3.583,3.5839,3.5855,3.6002,3.6029,3.6104,3.5977,3.6372,3.6382,3.6391,3.646,3.6478,3.6494,0,0,0,0,0,3.5315,3.5446,3.5436,3.5469,3.5639,3.5768,3.5789,3.5807,3.5759,3.5822,3.586,3.5837,3.608,3.6016,3.6046,3.6125,3.6368,3.638,3.6391,3.6453,3.6475,3.6493,0,0,0,0,0,0,3.5363,3.5457,3.5448,3.5611,3.5682,3.5762,3.5842,3.5831,3.5914,3.5904,3.592,3.5939,3.6078,3.6116,3.6044,3.6283,3.6216,3.6234,3.6253,3.6274,3.6291,3.6277,3.5986,0,0,0,0,0,3.5393,3.5494,3.5569,3.5705,3.5742,3.5786,3.5843,3.5851,3.5924,3.5952,3.6001,3.6069,3.616,3.622,3.6308,3.6466,3.6481,3.6535,3.6552,3.6566,3.658,3.6662,3.6685,3.6434,3.6434,3.6434,0,0,3.5455,3.5519,3.5581,3.5716,3.5773,3.5872,3.5811,3.592,3.5992,3.5968,3.6101,3.6139,3.6215,3.6364,3.6431,3.6399,3.6653,3.658,3.6591,3.6597,3.6676,3.67,3.6721,3.6442,3.644,3.6439,0,0,3.5617,3.5679,3.5797,3.5855,3.5943,3.5971,3.6,3.6082,3.6107,3.6242,3.6224,3.6309,3.6467,3.6521,3.657,3.6753,3.6732,3.6781,3.6867,3.6947,3.6967,3.6984,3.7045,3.7067,3.6795,3.6796,3.6796,0,3.5682,3.5836,3.5858,3.5969,3.6027,3.6013,3.613,3.6184,3.6294,3.6332,3.6296,3.6493,3.6544,3.6702,3.6747,3.6788,3.6817,3.677,3.6963,3.6981,3.6997,3.7055,3.7079,3.6801,3.68,3.6799,3.6799,0,3.5908,3.6015,3.6099,3.6209,3.6277,3.639,3.6426,3.6491,3.6493,3.6524,3.6658,3.672,3.6818,3.6857,3.6859,3.7015,3.6992,3.696,3.6892,3.7026,3.708,3.7103,3.6808,3.6806,3.6804,3.6803,0,0,3.6103,3.6226,3.6256,3.6304,3.64,3.648,3.6591,3.6691,3.6744,3.682,3.691,3.7044,3.7014,3.7069,3.7077,3.7148,3.7284,3.7106,3.7108,3.7133,3.7454,3.7475,3.75,3.7272,3.7277,3.728,3.7446,0,3.6271,3.6472,3.6495,3.6671,3.6767,3.6755,3.6851,3.6917,3.6949,3.7031,3.7065,3.7158,3.7114,3.7146,3.7217,3.7253,3.7347,3.7241,3.735,3.7354,3.7328,3.753,3.7553,3.7706,3.7468,3.7471,3.7474,0,3.6494,3.658,3.6767,3.6848,3.6889,3.6975,3.7067,3.7148,3.7221,3.7238,3.73,3.7299,3.7408,3.7339,3.7487,3.7414,3.746,3.7484,3.749,3.7498,3.742,3.7538,3.7756,3.7777,3.7509,3.7506,3.7504,0,3.6612,3.6775,3.6907,3.6949,3.7048,3.7108,3.7151,3.722,3.7278,3.7357,3.7393,3.7483,3.7531,3.7598,3.7618,3.7568,3.7764,3.7698,3.7777,3.7776,3.7816,3.7812,3.8039,3.7852,3.7852,3.7852,3.7851,0,3.6795,3.6908,3.6961,3.7042,3.7167,3.7192,3.7313,3.7353,3.7414,3.7499,3.7494,3.7572,3.7597,3.7678,3.7695,3.7812,3.7834,3.7848,3.785,3.7846,3.7844,3.7874,3.7862,3.7858,3.7856,3.7855,3.7854,0,3.6946,3.6987,3.713,3.7213,3.7236,3.7324,3.7392,3.7467,3.7499,3.7605,3.7631,3.7679,3.7774,3.7803,3.7917,3.7927,3.8063,3.8058,3.804,3.8038,3.8114,3.8105,3.8365,3.8398,3.8194,3.8196,3.8197,0,3.7058,3.7146,3.724,3.7298,3.7345,3.7439,3.7498,3.7525,3.7586,3.7676,3.7739,3.7834,3.7912,3.8063,3.8105,3.8191,3.8184,3.827,3.8197,3.8189,3.818,3.8173,3.818,3.8282,3.8284,3.8286,3.8287,0,3.7251,3.7268,3.7357,3.7453,3.7525,3.7601,3.7673,3.772,3.7756,3.7824,3.7924,3.7984,3.8102,3.8194,3.8282,3.832,3.8308,3.8311,3.8332,3.8327,3.8311,3.8316,3.8072,3.8303,3.8302,3.8301,3.83,3.8299,3.7384,3.746,3.7538,3.7636,3.7695,3.7762,3.7837,3.7879,3.7964,3.8064,3.8074,3.818,3.8247,3.8364,3.8408,3.8488,3.8462,3.8495,3.8503,3.8509,3.8513,3.8303,3.8504,3.8504,3.8503,3.8503,3.8503,0,3.7572,3.7623,3.7714,3.7817,3.7893,3.7882,3.7961,3.8023,3.8119,3.8186,3.8263,3.8375,3.8465,3.8514,3.8602,3.8656,3.8652,3.8678,3.8672,3.868,3.8533,3.8504,3.8679,3.8679,3.8679,3.8679,3.8679,3.8679,3.7679,3.7807,3.7833,3.7987,3.8035,3.8143,3.8189,3.8249,3.8303,3.843,3.8506,3.854,3.8598,3.869,3.877,3.8782,3.8812,3.884,3.8848,3.8709,3.8691,3.8673,3.8645,3.8848,3.8848,3.8987,3.8988,3.8989]},{"header":{"parameterUnit":"m.s-1","parameterCategory":1,"la1":30.2991,"la2":30.254,"lo1":-89.0895,"lo2":-89.0444,"dy":0.0017,"dx":0.0017,"nx":28,"ny":28,"refTime":"2024-05-17T09:00:00:Z","depth":0,"parameterNumber":3,"parameterNumberName":"V-component_of_WINDS"},"data":[0,0,0,0,0,0,0,0,0,0,0,0,0,0,0,0,0,0,0,0,0,0,0,0,0,0,0,0,0,0,0,0,0,0,0,0,0,0,0,0,0,0,0,0,0,0,0,0,0,0,0,0,0,0,0,0,0,0,5.4513,5.4515,0,5.4683,5.4684,5.4686,5.4736,5.4735,5.4734,5.4734,5.4897,5.4902,5.4907,0,0,0,0,0,0,0,0,0,0,0,0,0,5.4226,5.4231,5.4513,5.4515,5.4517,5.4682,5.4685,5.4687,5.4736,5.4735,5.4734,5.4733,5.4895,5.4902,5.4908,0,0,0,0,0,0,0,0,0,0,0,0,0,5.4368,5.4232,5.4512,5.4562,5.4568,5.4682,5.4685,5.4687,5.4737,5.4735,5.4734,5.4733,5.4893,5.4901,5.4909,5.4982,0,0,5.4932,5.4936,0,0,0,0,0,0,0,0,5.436,5.4378,5.4552,5.4559,5.4566,5.4687,5.4643,5.4786,5.4737,5.4672,5.4734,5.4732,5.4828,5.4841,5.4875,5.499,5.4997,5.4933,5.4938,5.4941,5.4943,0,0,0,0,0,0,0,5.435,5.4371,5.458,5.4555,5.4563,5.4574,5.4592,5.4671,5.4755,5.4678,5.4682,5.4702,5.4831,5.4867,5.4879,5.4999,5.4933,5.494,5.4944,5.4947,5.5187,5.5189,0,0,0,0,0,0,5.4333,5.4363,5.4574,5.4585,5.4458,5.458,5.4601,5.4649,5.4754,5.4769,5.4703,5.4703,5.4855,5.487,5.4885,5.4981,5.4941,5.4948,5.4953,5.5186,5.5188,5.519,0,0,0,0,0,0,5.4326,5.4351,5.4567,5.4475,5.4504,5.4586,5.464,5.4653,5.469,5.4773,5.4788,5.4725,5.4854,5.4874,5.496,5.4987,5.4952,5.4959,5.5184,5.5186,5.5189,5.5171,0,0,0,0,0,0,5.4318,5.4348,5.4378,5.4476,5.4508,5.464,5.4642,5.4658,5.4704,5.4707,5.4798,5.4812,5.4855,5.4948,5.4967,5.4997,5.4965,5.5181,5.5185,5.5188,5.517,5.5173,5.5176,0,0,0,0,0,5.4307,5.4363,5.4379,5.4405,5.4548,5.4642,5.466,5.4712,5.4706,5.4737,5.4791,5.4809,5.4982,5.4956,5.4978,5.5011,5.518,5.5184,5.5188,5.5168,5.5173,5.5176,0,0,0,0,0,0,5.4262,5.4377,5.4396,5.4485,5.4554,5.465,5.4689,5.4714,5.4783,5.4782,5.484,5.486,5.4942,5.4985,5.4955,5.509,5.5081,5.509,5.5059,5.5063,5.5066,5.5054,5.4971,0,0,0,0,0,5.4263,5.4333,5.4428,5.4498,5.4532,5.4605,5.4648,5.4683,5.4755,5.4783,5.4843,5.491,5.498,5.5024,5.5092,5.5177,5.5198,5.5211,5.5214,5.5216,5.5222,5.5273,5.5281,5.5203,5.5203,5.5202,0,0,5.4264,5.4336,5.4375,5.4491,5.4548,5.4618,5.4629,5.47,5.4752,5.4792,5.4878,5.4925,5.5004,5.509,5.5131,5.5128,5.5249,5.5221,5.5222,5.5227,5.5278,5.5286,5.5292,5.5205,5.5205,5.5204,0,0,5.4303,5.4364,5.4431,5.449,5.4579,5.4628,5.4644,5.4738,5.4773,5.4861,5.4894,5.4955,5.5073,5.513,5.5173,5.524,5.5259,5.526,5.5275,5.5325,5.5331,5.5336,5.5362,5.537,5.5267,5.5267,5.5267,0,5.4292,5.4401,5.4461,5.4534,5.4584,5.4629,5.4697,5.475,5.4855,5.4888,5.4885,5.5039,5.5094,5.5196,5.5213,5.5247,5.5267,5.5249,5.5326,5.5332,5.5338,5.5363,5.5372,5.5266,5.5266,5.5266,5.5266,0,5.4385,5.446,5.4503,5.4609,5.4665,5.4733,5.4803,5.4852,5.4883,5.4932,5.5023,5.5093,5.5178,5.5205,5.5233,5.5312,5.5308,5.5315,5.5306,5.5344,5.5369,5.5378,5.5266,5.5266,5.5266,5.5266,0,0,5.4394,5.4539,5.4553,5.4604,5.4708,5.4766,5.4839,5.4927,5.4968,5.504,5.5102,5.5204,5.5213,5.5263,5.5299,5.5342,5.5394,5.5344,5.5347,5.5352,5.5486,5.5481,5.5491,5.5408,5.541,5.5412,5.548,0,5.4447,5.4582,5.464,5.4748,5.4819,5.4866,5.4929,5.4999,5.5049,5.5115,5.5168,5.524,5.5245,5.5276,5.5322,5.5378,5.5421,5.5374,5.5465,5.5468,5.5444,5.5503,5.5497,5.5557,5.549,5.5492,5.5493,0,5.4525,5.4604,5.4719,5.482,5.4852,5.4908,5.4996,5.5059,5.514,5.5173,5.5233,5.5268,5.5345,5.5334,5.5442,5.5408,5.5449,5.5483,5.5487,5.5497,5.5482,5.5515,5.5578,5.5587,5.5508,5.5507,5.5506,0,5.4522,5.4657,5.4745,5.4786,5.4905,5.4944,5.4995,5.5076,5.5127,5.5203,5.5237,5.5319,5.5363,5.5426,5.5483,5.5469,5.5586,5.5578,5.5615,5.5613,5.5635,5.5633,5.5706,5.5662,5.5662,5.5662,5.5662,0,5.4574,5.4643,5.4746,5.48,5.488,5.4947,5.5023,5.5076,5.5149,5.5213,5.5258,5.5316,5.5389,5.5457,5.5501,5.5585,5.5604,5.5632,5.5643,5.5628,5.5625,5.5655,5.5652,5.5664,5.5664,5.5663,5.5663,0,5.4583,5.4655,5.4755,5.4862,5.4891,5.4945,5.5036,5.5089,5.5143,5.5224,5.5247,5.533,5.5413,5.5478,5.5583,5.5614,5.5702,5.5714,5.5676,5.5682,5.5715,5.5711,5.581,5.5827,5.5771,5.5771,5.5772,0,5.4611,5.4667,5.4783,5.4832,5.4884,5.496,5.5015,5.5084,5.5138,5.5238,5.528,5.5368,5.5441,5.5571,5.5639,5.5722,5.5736,5.5765,5.5748,5.5733,5.5737,5.5733,5.574,5.5766,5.5766,5.5767,5.5767,0,5.4654,5.4689,5.4767,5.486,5.4925,5.4999,5.5074,5.5111,5.5193,5.5252,5.5341,5.5398,5.5511,5.5597,5.5687,5.5737,5.5766,5.5773,5.5786,5.577,5.5747,5.5761,5.5682,5.5769,5.5769,5.5769,5.5769,5.5769,5.4675,5.4728,5.4819,5.4906,5.4972,5.5043,5.51,5.5164,5.524,5.534,5.5376,5.5467,5.555,5.5676,5.5728,5.5799,5.58,5.5818,5.5823,5.5826,5.5826,5.5737,5.5815,5.5815,5.5816,5.5816,5.5816,0,5.4721,5.4784,5.4864,5.4971,5.504,5.5067,5.5153,5.5207,5.5289,5.5366,5.544,5.5543,5.5628,5.5706,5.5795,5.5837,5.5853,5.5858,5.5855,5.5867,5.5819,5.58,5.5844,5.5844,5.5844,5.5844,5.5844,5.5844,5.4753,5.4846,5.4892,5.5018,5.508,5.5173,5.5221,5.5286,5.5349,5.5464,5.5537,5.5589,5.5667,5.5763,5.5843,5.5863,5.5894,5.5896,5.592,5.5873,5.5869,5.5866,5.5848,5.5902,5.5902,5.5962,5.5962,5.5963]}]]